Location: Igon
(43.1667°N, 0.2333°W)
Time: 15:04:25
(UTC+00:00)

Cosmos 1943 - Pass Details

Date: 29 November 2020
Orbit: 832 x 851 km, 71.0° (Epoch: 24 January)

Event Time Altitude Azimuth Distance (km) Brightness Sun altitude
Exits shadow 05:18:35 34° 255° (WSW) 1,370 3.8 -20.0°
Drops below altitude 10° 05:23:37 10° 193° (SSW) 2,468 5.6 -19.1°
Sets 05:26:15 0° 184° (S) 3,397 6.5 -18.6°
